Regional Weather Roundup
Issued by NWS Northern Indiana

Home | Current Version | Previous Version | Text Only | Print | Product List | Glossary On
Versions: 1 2 3 4 5 6 7 8 9 10 11 12 13 14 15 16 17 18 19 20 21 22 23 24 25 26 27 28 29 30 31 32 33 34 35 36 37 38 39 40 41 42 43 44 45 46 47 48 49 50
000
ASUS43 KIWX 280310
RWRIWX

KIWX WEATHER ROUNDUP
NATIONAL WEATHER SERVICE NORTHERN INDIANA
1100 PM EDT WED MAY 27 2015

NOTE: "FAIR" INDICATES FEW OR NO CLOUDS BELOW 12,000 FEET WITH NO
SIGNIFICANT WEATHER AND/OR OBSTRUCTIONS TO VISIBILITY.

* THESE STATIONS ARE NOT UNDER NWS QUALITY CONTROL. THEY ALSO MAY NOT
  REPORT WEATHER SUCH AS PRECIPITATION OR FOG.

INZ001>027-280400-
NORTHERN INDIANA

CITY           SKY/WX    TMP DP  RH WIND       PRES   REMARKS
GARY*          CLEAR     59  57  94 CALM      30.12R
VALPARAISO     CLEAR     62  55  77 CALM      30.13R
MICHIGAN CITY* CLEAR     55  55 100 CALM      30.13R
LAPORTE*       PTCLDY    61  55  80 NW3       30.13R
KNOX*          CLEAR     59  59 100 CALM      30.12R
SOUTH BEND     CLEAR     59  55  87 NW7       30.13R
GOSHEN         CLEAR     60  55  83 NW7       30.11R
MONTICELLO*    CLEAR     65  59  78 N5        30.12R
LOGANSPORT*    CLEAR     63  55  77 N7        30.13R
ROCHESTER*     CLEAR     64  59  82 CALM      30.13R
WARSAW*        CLEAR     61  55  82 CALM      30.12R
ANGOLA*        CLEAR     64  57  77 NW6       30.10R
FORT WAYNE     PTCLDY    67  59  75 NW6       30.11R
HUNTINGTON*    CLEAR     65  59  81 CALM      30.11R
PERU/GRISSOM   CLEAR     65  58  77 N5        30.10R
MARION*        FAIR      68  60  75 N6        30.12R

$$
INZ028>050-280400-
CENTRAL INDIANA

CITY           SKY/WX    TMP DP  RH WIND       PRES   REMARKS
LAFAYETTE      CLEAR     65  57  75 N6        30.11R
KOKOMO*        CLEAR     66  59  77 N6        30.11R
MUNCIE*        PTCLDY    69  62  78 SW6       30.11R
INDIANAPOLIS   MOCLDY    68  62  81 SW6       30.10R

$$
MIZ043>046-050>051-056>058-064>065-071>073-077>080-280400-
SOUTHWEST LOWER MICHIGAN

CITY           SKY/WX    TMP DP  RH WIND       PRES   REMARKS
BATTLE CREEK   CLEAR     61  55  81 NW3       30.11R
BENTON HARBOR  FOG       53  53 100 CALM      30.12R VSB 1/4
COLDWATER*     CLEAR     60  55  83 W3        30.11R
HILLSDALE*     PTCLDY    64  59  82 NW7       30.10R
HOLLAND        CLEAR     56  53  90 CALM      30.12R
GRAND RAPIDS   CLEAR     59  56  89 W6        30.10R
KALAMAZOO      CLEAR     60  54  80 NW3       30.12R
STURGIS*       CLEAR     59  57  94 CALM      30.11R
THREE RIVERS*  FAIR      59  55  86 CALM      30.12R

$$
OHZ001>008-015>018-024>025-280400-
NORTHWEST OHIO

CITY           SKY/WX    TMP DP  RH WIND       PRES   REMARKS
WAUSEON*       FAIR      66  64  94 NW5       30.09R
DEFIANCE       PTCLDY    68  60  75 VRB3      30.09R
FINDLAY        CLOUDY    67  64  90 SW5       30.08R
TOLEDO EXPRESS CLOUDY    65  63  93 W3        30.07R
TOLEDO METCALF CLOUDY    67  63  87 SW3       30.08R
LIMA           CLOUDY    68  63  84 SW6       30.09R

$$
AND FOR LAKE MICHIGAN COASTAL AND OPEN LAKE BUOY OBSERVATIONS

STATION/POSITION TEMP    WIND        PRES    VSBY  WAVE
                 AIR SEA DIR/SP/G                  HT/PER
                 (F)     (DEG/KT/KT) (MB)    (MI)  (FT/S)
MICHIGAN CITY     59      30/  4/  4   N/A
BURNS HARBOR      62      80/  7/  8 1020.3S
SAINT JOSEPH      55     200/  1/  3 1021.0R
SOUTH LAKE BUOY   44 38  180/  6/  6 1020.1R         0
4 MI NW BRIDGMAN  55 56  340/  2/  4   N/A           1/ 3
MICHIGAN CITY     56 53  120/  2/  4   N/A           1

$$
&&


USA.gov is the U.S. government's official web portal to all federal, state and local government web resources and services.